Simultaneous Nadir Overpasses (SNOs) Predictions

Prediction of SNOs between FY3D and TERRA Satellite Orbit:

Table of predicted SNOs for the next 14.0 days since TLE Epoch: 6/22/2024
Index Date (FY3D) Time (FY3D) Lat,Lon (FY3D) SZA (FY3D ) Date (TERRA) Time (TERRA) Lat,Lon (TERRA) SZA (TERRA ) Distance(km) Time Diff (sec)
1 06/24/2024 00:26:45 75.74, 173.50 52.26 06/24/2024 00:27:00 75.74, 173.48 52.25 0.78 15
2 06/24/2024 01:17:29 -75.69, -19.02 127.79 06/24/2024 01:16:24 -75.67, -19.06 127.82 2.98 65
3 06/26/2024 11:39:38 75.78, 5.20 52.37 06/26/2024 11:40:12 75.77, 5.23 52.36 1.83 34
4 06/26/2024 12:30:22 -75.73, 172.68 127.68 06/26/2024 12:29:36 -75.70, 172.69 127.71 3.71 46
5 06/28/2024 22:52:31 75.78,-162.97 52.49 06/28/2024 22:53:25 75.77,-163.09 52.48 3.51 54
6 06/28/2024 23:43:15 -75.73, 4.51 127.56 06/28/2024 23:42:48 -75.76, 4.51 127.54 2.66 27
7 07/01/2024 10:05:25 75.83, 28.69 52.70 07/01/2024 10:06:37 75.81, 28.66 52.67 2.97 72
8 07/01/2024 10:56:09 -75.78,-163.83 127.35 07/01/2024 10:56:00 -75.79,-163.75 127.35 2.29 9
9 07/03/2024 22:09:02 -75.79, 27.97 127.15 07/03/2024 22:09:12 -75.79, 27.93 127.15 1.01 10



Historial Predications of SNOs between FY3D and TERRA
